Flag for Germany Weather past 2 weeks in Naumburg (Saale), Saxony-Anhalt, Germany

Now
36 °F

Overcast.


Feels Like: 33 °F
Forecast: 33 / 52 °F
Wind: 3 mph from West

Location: Gera-Leumnitz

Current Time: Mar 6, 2015 at 1:34:37 AM

Latest Report: Mar 6, 2015 at 1:00 AM


Visibility: 22 mi

Pressure: 30.61 "Hg

Humidity: 83%

Dew point: 31 °F

Location of Naumburg (Saale)Location

Historic Weather in Naumburg (Saale) — Graph

°F

Naumburg (Saale) temperature yesterday

Maximum temperature yesterday: 40 °F (at 3:00 PM)
Minimum temperature yesterday: 33 °F (at 6:00 AM)
Average temperature yesterday: 37 °F

Past Weeks' High & Low Weather Summary

 TemperatureHumidityPressure
High47 °F (Feb 27, 3:00 PM)98% (Feb 28, 4:00 AM)30.63 "Hg (Feb 28, 4:00 AM)
Low28 °F (Feb 20, 12:00 AM)38% (Feb 27, 4:00 PM)29.44 "Hg (Feb 21, 1:00 PM)
Average37 °F76%29.97 "Hg
* Reported Midnight between Feb 18 and Feb 19 — Midnight between Mar 5 and Mar 6, Naumburg (Saale), Weather by CustomWeather, © 2015

Note: Actual official high and low records may vary slightly from our data, if they occured in-between our weather recording intervals... More about our weather records

Advertising

Naumburg (Saale) weather history for previous 24 hours

 ConditionsComfort  
Time TempWeatherWind HumidityBarometerVisibility
12:00 AM
Fri, Mar 6
35 °FOvercast.3 mph84%30.61 "Hg22 mi
10:00 PM
Thu, Mar 5
37 °FOvercast.2 mph80%30.61 "Hg28 mi
9:00 PM38 °FOvercast.3 mph77%30.60 "Hg31 mi
8:00 PM38 °FOvercast.3 mph77%30.59 "Hg31 mi
7:00 PM39 °FSprinkles. Overcast.5 mph75%30.58 "Hg31 mi
6:00 PM39 °FOvercast.6 mph69%30.56 "Hg31 mi
5:00 PM40 °FOvercast.5 mph71%30.55 "Hg37 mi
4:00 PM40 °FOvercast.6 mph70%30.55 "Hg31 mi
3:00 PM40 °FOvercast.5 mph65%30.55 "Hg37 mi
2:00 PM40 °FOvercast.6 mph68%30.55 "Hg28 mi
1:00 PM40 °FOvercast.6 mph68%30.55 "Hg28 mi
12:00 PM39 °FOvercast.6 mph63%30.55 "Hg22 mi
11:00 AM38 °FOvercast.6 mph71%30.55 "Hg22 mi
10:00 AM35 °FOvercast.6 mph76%30.55 "Hg19 mi
9:00 AM35 °FOvercast.7 mph80%30.53 "Hg14 mi
8:00 AM34 °FDrizzle. Low clouds.7 mph89%30.50 "Hg11 mi
7:00 AM35 °FLow clouds.7 mph91%30.46 "Hg12 mi
6:00 AM33 °FLight rain. Low clouds.7 mph96%30.43 "Hg3 mi
5:00 AM34 °FLight snow. Low clouds.7 mph95%30.40 "Hg4 mi
3:00 AM35 °FOvercast.5 mph84%30.36 "Hg19 mi
2:00 AM36 °FDrizzle. Overcast.8 mph81%30.35 "Hg16 mi
1:00 AM36 °FOvercast.6 mph75%30.33 "Hg25 mi
Weather by CustomWeather, © 2015

See weather overviewHow to use our weather pages